Weather History for Ord, NE

Change the Weather History Date:

Wednesday, September 5, 2012

  Actual Average Record
Temperature  
Mean Temperature 66 °F 68 °F  
Max Temperature 83 °F 82 °F 95 °F (1998)
Min Temperature 49 °F 54 °F 38 °F (2011)
Degree Days  
Heating Degree Days 0 1  
Month to date heating degree days 0 5  
Since 1 July heating degree days 11 19  
Cooling Degree Days 1 5  
Month to date cooling degree days 52 27  
Year to date cooling degree days 1194 784  
Growing Degree Days 18 (Base 50)    
Moisture  
Dew Point 45 °F    
Average Humidity 48    
Maximum Humidity 77    
Minimum Humidity 18    
Precipitation  
Precipitation 0.00 in 0.09 in 1.62 in (1905)
Month to date precipitation 0.00 0.48  
Year to date precipitation 10.92 19.39  
Sea Level Pressure  
Sea Level Pressure 29.93 in    
Wind  
Wind Speed 9 mph (NNW)    
Max Wind Speed 24 mph    
Max Gust Speed 30 mph    
Visibility 10 miles    
Events      
T = Trace of Precipitation, MM = Missing Value Source: NWS Daily Summary

Daily Weather History Graph

Daily Weather History Graph

Search for Another Location

Airport:

Trip Planner

Search our weather history database for the weather conditions in past years. The results will help you decide how hot, cold, wet, or windy it might be!

Date:

Astronomy

Sep. 05, 2012 Rise Set
Actual Time 7:06 AM CDT 8:01 PM CDT
Civil Twilight 6:38 AM CDT 8:29 PM CDT
Nautical Twilight 6:04 AM CDT 9:03 PM CDT
Astronomical Twilight 5:29 AM CDT 9:37 PM CDT
Moon 10:27 PM CDT (9/5) 12:16 PM CDT (9/5)
Length of Visible Light 13h 51m
Length of Day
12h 54m
Waning Gibbous, 76% of the Moon is Illuminated
Sep 5
Waning Gibbous
Sep 8
Last Quarter
Sep 15
New
Sep 22
First Quarter
Sep 29
Full

Hourly Weather History & Observations

Time (CDT) Temp. Dew Point Humidity Pressure Visibility Wind Dir Wind Speed Gust Speed Precip Events Conditions
12:53 AM 69.1 °F 55.0 °F 61% 29.77 in 10.0 mi WSW 9.2 mph - N/A   Clear
1:53 AM 70.0 °F 55.0 °F 59% 29.76 in 10.0 mi WSW 12.7 mph - N/A   Clear
2:53 AM 64.0 °F 54.0 °F 70% 29.78 in 10.0 mi West 4.6 mph - N/A   Clear
3:53 AM 64.0 °F 43.0 °F 46% 29.80 in 10.0 mi NNW 13.8 mph - N/A   Clear
4:53 AM 60.1 °F 46.0 °F 60% 29.84 in 10.0 mi NW 8.1 mph - N/A   Clear
5:53 AM 59.0 °F 48.0 °F 67% 29.87 in 10.0 mi NW 11.5 mph - N/A   Clear
6:53 AM 60.1 °F 48.0 °F 64% 29.91 in 10.0 mi NNW 10.4 mph - N/A   Clear
7:53 AM 60.1 °F 48.0 °F 64% 29.95 in 10.0 mi NNW 15.0 mph 20.7 mph N/A   Clear
8:53 AM 64.0 °F 46.0 °F 52% 29.96 in 10.0 mi NNW 18.4 mph 25.3 mph N/A   Clear
9:53 AM 68.0 °F 45.0 °F 43% 29.97 in 10.0 mi North 17.3 mph 25.3 mph N/A   Clear
10:53 AM 71.1 °F 44.1 °F 38% 29.99 in 10.0 mi NNW 21.9 mph 26.5 mph N/A   Clear
11:53 AM 75.0 °F 43.0 °F 32% 30.00 in 10.0 mi North 18.4 mph 25.3 mph N/A   Clear
12:53 PM 77.0 °F 42.1 °F 29% 29.99 in 10.0 mi North 16.1 mph 26.5 mph N/A   Clear
1:53 PM 79.0 °F 41.0 °F 26% 29.98 in 10.0 mi North 11.5 mph - N/A   Clear
2:53 PM 80.1 °F 39.9 °F 24% 29.97 in 10.0 mi NNW 12.7 mph 18.4 mph N/A   Clear
3:53 PM 82.0 °F 37.9 °F 21% 29.96 in 10.0 mi North 9.2 mph - N/A   Clear
4:53 PM 82.0 °F 36.0 °F 19% 29.95 in 10.0 mi NNW 8.1 mph - N/A   Clear
5:53 PM 82.0 °F 35.1 °F 18% 29.94 in 10.0 mi North 8.1 mph - N/A   Clear
6:53 PM 79.0 °F 39.0 °F 24% 29.94 in 10.0 mi NNE 3.5 mph - N/A   Clear
7:53 PM 69.1 °F 46.9 °F 45% 29.96 in 10.0 mi Calm Calm - N/A   Clear
8:53 PM 61.0 °F 51.1 °F 70% 29.97 in 10.0 mi Calm Calm - N/A   Clear
9:53 PM 55.9 °F 46.9 °F 72% 29.99 in 10.0 mi SSW 3.5 mph - N/A   Clear
10:53 PM 53.1 °F 45.0 °F 74% 29.98 in 10.0 mi Calm Calm - N/A   Clear
11:53 PM 52.0 °F 45.0 °F 77% 29.98 in 10.0 mi Calm Calm - N/A   Clear